{"data":{"norad_id":61054,"intl_designator":"2024-164E","name":"STARLINK-11294 [DTC]","alt_names":[],"object_type":"PAYLOAD","status":"ACTIVE","operator":null,"country":"US","launch_date":"2024-09-13","launch_site_code":"AFWTR","launch_vehicle":null,"mission":null,"orbit_class":"UNKNOWN","rcs_meters":null,"size_class":null,"mass_kg":null,"dimensions":null,"purposes":["comms"],"wikipedia_slug":null,"has_3d_model":false,"image_url":null,"decayed_at":null,"tle_current":{"epoch":"2026-09-21T17:45:12.664224Z","epoch_age_seconds":85057,"freshness":"FRESH","line1":"1 61054U 24164E   26264.73972991  .00000695  00000+0  10594-4 0  9992","line2":"2 61054  53.1589  64.6028 0000819  68.0245 292.0860 15.69709511116210","mean_motion":15.69709511,"eccentricity":8.19e-5,"inclination_deg":53.1589,"raan_deg":64.6028,"arg_perigee_deg":68.0245,"mean_anomaly_deg":292.086,"bstar":1.0594e-5,"rev_number":11621,"period_min":91.736718794717,"perigee_km":359.1763185952,"apogee_km":360.27998090673,"semimajor_km":6737.865149751,"source":"CELESTRAK","updated_at":"2026-09-22T09:00:49.331270Z"}}}